Location: Bacea
(45.9500°N, 22.6667°E)
Time: 08:26:23
(UTC+00:00)

Cosmos 489 Rocket - Pass Details

Date: 23 May 2022
Orbit: 952 x 983 km, 74.0° (Epoch: 02 July)

Event Time Altitude Azimuth Distance (km) Brightness Sun altitude
Rises 19:28:23 0° 270° (W) 3,631 8.2 -12.1°
Reaches altitude 10° 19:33:09 10° 303° (WNW) 2,686 8.1 -12.7°
Maximum altitude 19:35:05 11° 321° (NW) 2,583 8.2 -12.9°
Drops below altitude 10° 19:37:02 10° 340° (NNW) 2,689 8.0 -13.1°
Sets 19:41:50 0° 13° (NNE) 3,640 8.1 -13.7°
